Lid_Strength_Index
5 5 5 6 6 6 6 6 6 6 6 6 6 6 6 6 6 6 7 7 7 7 7 6 7 6 9 14 14 10 8 9 11 10 12 13 14 14 15 12 11 11 10 8 7 9 8
6 6 5 6 6 6 6 6 6 6 6 6 6 6 6 7 7 7 7 7 7 7 7 6 7 7 12 17 10 10 11 11 12 11 12 12 14 13 15 15 14 12 11 11 9 9 10
6 5 6 6 7 7 7 6 6 6 6 6 6 7 7 7 7 7 8 7 8 7 7 7 7 10 14 16 11 10 11 11 11 11 13 12 11 13 13 15 12 11 12 11 10 10 10
6 6 7 7 7 7 7 6 7 6 6 6 6 7 7 7 7 8 8 8 8 7 6 6 7 10 16 11 10 11 11 11 10 10 10 10 10 11 11 10 11 13 11 14 11 10 10
7 7 7 7 7 7 7 7 7 7 7 7 7 7 7 7 7 9 8 9 8 8 8 10 11 14 18 10 13 11 11 13 12 11 10 9 8 10 9 11 13 12 15 15 14 11 12
7 7 8 7 7 7 7 7 7 7 7 7 7 7 7 8 8 9 9 10 10 10 11 10 12 15 15 16 13 12 11 11 12 11 11 10 9 11 10 11 16 15 15 14 15 12 12
7 8 8 8 7 7 7 7 7 7 7 7 7 8 8 8 9 9 10 11 14 15 14 17 16 17 16 13 11 13 11 12 12 11 14 10 12 13 12 10 10 11 12 13 12 10 11
8 8 7 8 8 8 7 7 7 7 7 8 8 8 8 9 10 10 11 14 15 14 18 15 15 15 14 13 16 14 11 14 13 14 12 12 14 10 9 9 10 11 12 13 11 10 9
8 8 8 8 8 8 8 7 7 7 7 8 8 8 8 9 10 12 14 15 12 12 17 18 15 16 15 14 16 15 12 11 13 14 12 13 12 10 11 11 12 12 13 13 13 10 9
8 8 8 8 8 8 8 8 7 7 8 8 8 9 9 10 13 13 14 13 11 11 19 20 18 16 14 14 16 11 9 10 12 13 12 12 10 12 12 13 12 15 11 12 13 14 17
8 9 8 8 9 8 8 8 7 8 8 8 9 9 10 10 13 15 14 12 11 13 22 19 18 12 13 16 14 13 8 10 13 13 12 14 13 13 14 13 11 14 11 12 13 14 15
9 9 9 9 9 8 8 8 8 8 8 8 9 9 11 12 13 14 13 12 14 20 25 21 17 17 17 15 14 11 11 9 9 12 11 12 10 12 12 11 10 10 12 12 13 13 19
9 9 9 9 9 8 8 8 8 8 8 9 9 10 12 13 16 13 12 14 20 22 20 21 20 18 18 18 15 13 14 14 16 18 17 14 13 11 12 13 11 11 15 21 21 20 20
9 9 9 9 9 8 8 8 8 8 9 9 10 12 13 13 13 14 15 18 23 24 22 18 18 18 20 18 15 14 14 15 14 15 17 19 19 13 11 12 14 14 16 20 26 23 21
9 9 10 9 8 8 9 9 9 9 9 10 12 13 14 13 13 14 17 22 24 23 20 20 19 21 20 17 15 15 15 16 14 14 19 19 18 11 11 11 12 15 18 15 20 18 20
8 9 9 9 9 9 9 9 9 9 10 11 14 15 15 13 14 14 18 23 22 19 18 18 23 20 21 18 17 16 16 15 14 13 12 15 19 13 12 10 11 13 14 20 19 24 24
8 9 9 10 10 9 10 9 9 9 10 12 15 17 14 14 13 17 22 22 22 18 17 19 20 20 19 19 16 16 17 14 15 13 12 14 16 16 13 15 17 17 19 18 17 19 23
9 9 10 10 10 10 10 10 9 10 10 14 15 19 14 14 19 19 21 21 18 18 16 17 17 18 18 17 16 16 17 15 11 12 15 14 15 19 16 13 12 14 17 18 21 22 19
8 9 10 10 10 10 10 10 9 10 11 14 17 18 14 14 22 22 21 20 19 19 18 18 18 16 16 16 18 15 15 12 11 13 14 13 16 20 18 15 13 16 16 16 17 18 22
9 9 10 10 11 11 10 10 10 10 11 15 17 20 18 18 19 21 23 21 21 17 18 17 17 16 16 16 14 16 15 13 11 12 10 12 16 18 21 18 15 18 17 17 19 22 22
9 9 10 10 11 11 11 10 10 10 11 14 17 20 20 22 21 20 21 23 22 21 18 17 18 17 17 19 16 16 15 13 12 12 12 14 18 17 17 15 16 17 19 19 20 21 23
9 9 10 10 11 11 11 10 10 10 12 15 18 19 20 21 21 21 21 22 21 20 19 20 19 16 16 17 15 17 15 15 15 13 14 13 18 18 18 14 15 18 18 19 20 20 20
9 9 9 10 10 11 11 11 11 10 12 15 15 15 18 21 21 21 21 21 20 18 18 17 17 16 16 14 12 12 12 13 13 14 15 16 17 19 20 16 16 20 20 20 20 19 20
9 9 9 10 10 11 11 11 11 10 12 13 14 16 19 22 20 21 21 20 19 18 19 17 16 16 13 10 10 11 13 14 14 13 13 16 17 17 20 18 22 19 16 18 19 18 19
9 9 9 10 10 11 11 11 11 11 11 12 13 15 18 21 20 20 20 19 18 18 19 18 16 14 12 12 14 15 15 16 15 14 14 14 17 19 21 20 18 19 19 20 21 20 18
9 9 9 10 10 10 11 11 11 11 10 12 13 13 16 20 21 19 20 20 19 19 18 18 14 13 12 13 15 19 20 19 19 17 13 15 16 17 20 22 24 21 19 17 17 22 18
9 9 9 9 10 10 10 10 11 11 10 12 13 13 15 19 18 18 19 19 17 19 19 18 16 15 13 15 16 18 19 17 20 20 20 19 19 20 20 21 21 19 18 16 24 23 18
9 9 9 9 9 10 10 10 10 10 10 11 14 12 14 17 17 17 16 17 16 16 19 17 17 16 15 17 16 17 18 18 20 18 19 21 22 20 20 22 24 17 18 23 20 18 19
8 9 9 9 10 10 10 10 10 10 10 11 14 12 12 15 16 15 14 13 13 14 15 16 17 16 13 15 15 15 17 17 20 20 18 20 20 21 20 20 17 17 19 17 18 19 19